******************************************************************************* JPL/HORIZONS (2015 KG163) 2025-Dec-12 18:00:50 Rec #:50200809 (+COV) Soln.date: 2021-Apr-15_13:48:53 # obs: 29 (2015-2017) IAU76/J2000 helio. ecliptic osc. elements (au, days, deg., period=Julian yrs): EPOCH= 2457392.5 ! 2016-Jan-05.00 (TDB) Residual RMS= .093975 EC= .9452785605676738 QR= 40.51264600307233 TP= 2459710.5698614954 OM= 219.0761844548053 W= 31.88766772913458 IN= 13.97791628483387 A= 740.3432077691259 MA= 359.8865822702483 ADIST= 1440.173769535179 PER= 20144.56282 N= 4.8928E-5 ANGMOM= .152710059 DAN= 43.71874 DDN= 399.27689 L= 250.1965786 B= 7.3308711 MOID= 39.5060997 TP= 2022-May-11.0698614954 Asteroid physical parameters (km, seconds, rotational period in hours): GM= n.a. RAD= n.a. ROTPER= n.a. H= 8.2 G= .150 B-V= n.a. ALBEDO= n.a. STYP= n.a. ASTEROID comments: 1: soln ref.= JPL#3, OCC=3 2: source=ORB ******************************************************************************* ******************************************************************************* Ephemeris / WWW_USER Fri Dec 12 18:00:50 2025 Pasadena, USA / Horizons ******************************************************************************* Target body name: (2015 KG163) {source: JPL#3} Center body name: Earth (399) {source: DE441} Center-site name: GEOCENTRIC ******************************************************************************* Start time : A.D. 2022-Aug-01 00:00:00.0000 UT Stop time : A.D. 2022-Aug-31 00:00:00.0000 UT Step-size : 180 minutes ******************************************************************************* Target pole/equ : undefined Target radii : undefined Center geodetic : 0.0, 0.0, -6378.137 {E-lon(deg),Lat(deg),Alt(km)} Center cylindric: 0.0, 0.0, 0.0 {E-lon(deg),Dxy(km),Dz(km)} Center pole/equ : ITRF93 {East-longitude positive} Center radii : 6378.137, 6378.137, 6356.752 km {Equator_a, b, pole_c} Target primary : Sun Vis. interferer : MOON (R_eq= 1737.400) km {source: DE441} Rel. light bend : Sun {source: DE441} Rel. lght bnd GM: 1.3271E+11 km^3/s^2 Small-body perts: Yes {source: SB441-N16} Atmos refraction: NO (AIRLESS) RA format : HMS Time format : CAL Calendar mode : Mixed Julian/Gregorian EOP file : eop.251212.p260310 EOP coverage : DATA-BASED 1962-JAN-20 TO 2025-DEC-12. PREDICTS-> 2026-MAR-09 Units conversion: 1 au= 149597870.700 km, c= 299792.458 km/s, 1 day= 86400.0 s Table cut-offs 1: Elevation (-90.0deg=NO ),Airmass (>38.000=NO), Daylight (NO ) Table cut-offs 2: Solar elongation ( 0.0,180.0=NO ),Local Hour Angle( 0.0=NO ) Table cut-offs 3: RA/DEC angular rate ( 0.0=NO ) ******************************************************************************* Initial IAU76/J2000 heliocentric ecliptic osculating elements (au, days, deg.): EPOCH= 2457392.5 ! 2016-Jan-05.00 (TDB) Residual RMS= .093975 EC= .9452785605676738 QR= 40.51264600307233 TP= 2459710.5698614954 OM= 219.0761844548053 W= 31.88766772913458 IN= 13.97791628483387 Equivalent ICRF heliocentric cartesian coordinates (au, au/d): X=-2.154120390766992E+01 Y=-3.314715583207337E+01 Z=-1.074917010400632E+01 VX= 3.324116747509419E-03 VY=-1.725321872401179E-03 VZ= 1.419708267640691E-04 Asteroid physical parameters (km, seconds, rotational period in hours): GM= n.a. RAD= n.a. ROTPER= n.a. H= 8.2 G= .150 B-V= n.a. ALBEDO= n.a. STYP= n.a. ******************************************************************************* Date__(UT)__HR:MN r rdot VmagSn VmagOb *************************************************************************** $$SOE 2022-Aug-01 00:00 40.49192791232 -0.0028492 6.5211768 26.4189365 2022-Aug-01 03:00 40.49192770800 -0.0028116 6.5211743 26.4317662 2022-Aug-01 06:00 40.49192750639 -0.0027740 6.5211717 26.4446022 2022-Aug-01 09:00 40.49192730750 -0.0027365 6.5211691 26.4574444 2022-Aug-01 12:00 40.49192711132 -0.0026989 6.5211665 26.4702928 2022-Aug-01 15:00 40.49192691785 -0.0026613 6.5211640 26.4831473 2022-Aug-01 18:00 40.49192672709 -0.0026237 6.5211614 26.4960080 2022-Aug-01 21:00 40.49192653904 -0.0025862 6.5211588 26.5088748 2022-Aug-02 00:00 40.49192635371 -0.0025486 6.5211562 26.5217477 2022-Aug-02 03:00 40.49192617109 -0.0025110 6.5211537 26.5346266 2022-Aug-02 06:00 40.49192599118 -0.0024734 6.5211511 26.5475117 2022-Aug-02 09:00 40.49192581399 -0.0024359 6.5211485 26.5604027 2022-Aug-02 12:00 40.49192563951 -0.0023983 6.5211460 26.5732999 2022-Aug-02 15:00 40.49192546774 -0.0023607 6.5211434 26.5862031 2022-Aug-02 18:00 40.49192529868 -0.0023231 6.5211408 26.5991124 2022-Aug-02 21:00 40.49192513233 -0.0022856 6.5211383 26.6120277 2022-Aug-03 00:00 40.49192496870 -0.0022480 6.5211357 26.6249492 2022-Aug-03 03:00 40.49192480778 -0.0022104 6.5211331 26.6378768 2022-Aug-03 06:00 40.49192464958 -0.0021728 6.5211305 26.6508105 2022-Aug-03 09:00 40.49192449408 -0.0021352 6.5211280 26.6637504 2022-Aug-03 12:00 40.49192434130 -0.0020977 6.5211254 26.6766966 2022-Aug-03 15:00 40.49192419123 -0.0020601 6.5211228 26.6896490 2022-Aug-03 18:00 40.49192404388 -0.0020225 6.5211203 26.7026078 2022-Aug-03 21:00 40.49192389924 -0.0019849 6.5211177 26.7155729 2022-Aug-04 00:00 40.49192375731 -0.0019473 6.5211151 26.7285445 2022-Aug-04 03:00 40.49192361809 -0.0019098 6.5211126 26.7415226 2022-Aug-04 06:00 40.49192348159 -0.0018722 6.5211100 26.7545072 2022-Aug-04 09:00 40.49192334779 -0.0018346 6.5211074 26.7674986 2022-Aug-04 12:00 40.49192321672 -0.0017970 6.5211049 26.7804967 2022-Aug-04 15:00 40.49192308835 -0.0017594 6.5211023 26.7935017 2022-Aug-04 18:00 40.49192296270 -0.0017218 6.5210997 26.8065136 2022-Aug-04 21:00 40.49192283976 -0.0016843 6.5210972 26.8195327 2022-Aug-05 00:00 40.49192271954 -0.0016467 6.5210946 26.8325589 2022-Aug-05 03:00 40.49192260202 -0.0016091 6.5210921 26.8455924 2022-Aug-05 06:00 40.49192248722 -0.0015715 6.5210895 26.8586334 2022-Aug-05 09:00 40.49192237514 -0.0015339 6.5210869 26.8716819 2022-Aug-05 12:00 40.49192226576 -0.0014963 6.5210844 26.8847382 2022-Aug-05 15:00 40.49192215910 -0.0014588 6.5210818 26.8978024 2022-Aug-05 18:00 40.49192205515 -0.0014212 6.5210792 26.9108746 2022-Aug-05 21:00 40.49192195392 -0.0013836 6.5210767 26.9239551 2022-Aug-06 00:00 40.49192185540 -0.0013460 6.5210741 26.9370439 2022-Aug-06 03:00 40.49192175959 -0.0013084 6.5210715 26.9501414 2022-Aug-06 06:00 40.49192166650 -0.0012708 6.5210690 26.9632476 2022-Aug-06 09:00 40.49192157612 -0.0012332 6.5210664 26.9763628 2022-Aug-06 12:00 40.49192148845 -0.0011957 6.5210639 26.9894872 2022-Aug-06 15:00 40.49192140349 -0.0011581 6.5210613 27.0026210 2022-Aug-06 18:00 40.49192132125 -0.0011205 6.5210587 27.0157645 2022-Aug-06 21:00 40.49192124173 -0.0010829 6.5210562 27.0289178 2022-Aug-07 00:00 40.49192116491 -0.0010453 6.5210536 27.0420813 2022-Aug-07 03:00 40.49192109081 -0.0010077 6.5210511 27.0552551 2022-Aug-07 06:00 40.49192101942 -0.0009701 6.5210485 27.0684395 2022-Aug-07 09:00 40.49192095075 -0.0009325 6.5210459 27.0816347 2022-Aug-07 12:00 40.49192088479 -0.0008949 6.5210434 27.0948411 2022-Aug-07 15:00 40.49192082154 -0.0008574 6.5210408 27.1080589 2022-Aug-07 18:00 40.49192076101 -0.0008198 6.5210383 27.1212884 2022-Aug-07 21:00 40.49192070319 -0.0007822 6.5210357 27.1345298 2022-Aug-08 00:00 40.49192064808 -0.0007446 6.5210332 27.1477835 2022-Aug-08 03:00 40.49192059569 -0.0007070 6.5210306 27.1610496 2022-Aug-08 06:00 40.49192054601 -0.0006694 6.5210281 27.1743287 2022-Aug-08 09:00 40.49192049905 -0.0006318 6.5210255 27.1876208 2022-Aug-08 12:00 40.49192045480 -0.0005942 6.5210229 27.2009263 2022-Aug-08 15:00 40.49192041326 -0.0005566 6.5210204 27.2142455 2022-Aug-08 18:00 40.49192037444 -0.0005190 6.5210178 27.2275787 2022-Aug-08 21:00 40.49192033833 -0.0004814 6.5210153 27.2409262 2022-Aug-09 00:00 40.49192030493 -0.0004438 6.5210127 27.2542882 2022-Aug-09 03:00 40.49192027425 -0.0004062 6.5210102 27.2676651 2022-Aug-09 06:00 40.49192024628 -0.0003686 6.5210076 27.2810572 2022-Aug-09 09:00 40.49192022102 -0.0003311 6.5210051 27.2944647 2022-Aug-09 12:00 40.49192019848 -0.0002935 6.5210025 27.3078879 2022-Aug-09 15:00 40.49192017866 -0.0002559 6.5210000 27.3213271 2022-Aug-09 18:00 40.49192016154 -0.0002183 6.5209974 27.3347824 2022-Aug-09 21:00 40.49192014714 -0.0001807 6.5209949 27.3482543 2022-Aug-10 00:00 40.49192013546 -0.0001431 6.5209923 27.3617429 2022-Aug-10 03:00 40.49192012649 -0.0001055 6.5209898 27.3752485 2022-Aug-10 06:00 40.49192012023 -0.0000679 6.5209872 27.3887713 2022-Aug-10 09:00 40.49192011669 -0.0000303 6.5209847 27.4023114 2022-Aug-10 12:00 40.49192011586 0.0000073 6.5209821 27.4158692 2022-Aug-10 15:00 40.49192011775 0.0000449 6.5209796 27.4294447 2022-Aug-10 18:00 40.49192012235 0.0000825 6.5209770 27.4430382 2022-Aug-10 21:00 40.49192012966 0.0001201 6.5209745 27.4566498 2022-Aug-11 00:00 40.49192013969 0.0001577 6.5209719 27.4702796 2022-Aug-11 03:00 40.49192015243 0.0001953 6.5209694 27.4839278 2022-Aug-11 06:00 40.49192016788 0.0002329 6.5209668 27.4975945 2022-Aug-11 09:00 40.49192018606 0.0002705 6.5209643 27.5112797 2022-Aug-11 12:00 40.49192020694 0.0003081 6.5209617 27.5249836 2022-Aug-11 15:00 40.49192023054 0.0003457 6.5209592 27.5387061 2022-Aug-11 18:00 40.49192025685 0.0003833 6.5209566 27.5524474 2022-Aug-11 21:00 40.49192028588 0.0004209 6.5209541 27.5662074 2022-Aug-12 00:00 40.49192031762 0.0004585 6.5209515 27.5799862 2022-Aug-12 03:00 40.49192035208 0.0004961 6.5209490 27.5937837 2022-Aug-12 06:00 40.49192038925 0.0005337 6.5209464 27.6075999 2022-Aug-12 09:00 40.49192042913 0.0005713 6.5209439 27.6214347 2022-Aug-12 12:00 40.49192047173 0.0006089 6.5209414 27.6352880 2022-Aug-12 15:00 40.49192051705 0.0006465 6.5209388 27.6491599 2022-Aug-12 18:00 40.49192056508 0.0006841 6.5209363 27.6630501 2022-Aug-12 21:00 40.49192061582 0.0007217 6.5209337 27.6769585 2022-Aug-13 00:00 40.49192066928 0.0007593 6.5209312 27.6908851 2022-Aug-13 03:00 40.49192072545 0.0007970 6.5209286 27.7048295 2022-Aug-13 06:00 40.49192078434 0.0008346 6.5209261 27.7187918 2022-Aug-13 09:00 40.49192084594 0.0008722 6.5209236 27.7327716 2022-Aug-13 12:00 40.49192091025 0.0009098 6.5209210 27.7467688 2022-Aug-13 15:00 40.49192097728 0.0009474 6.5209185 27.7607832 2022-Aug-13 18:00 40.49192104703 0.0009850 6.5209159 27.7748146 2022-Aug-13 21:00 40.49192111949 0.0010226 6.5209134 27.7888626 2022-Aug-14 00:00 40.49192119466 0.0010602 6.5209109 27.8029272 2022-Aug-14 03:00 40.49192127255 0.0010978 6.5209083 27.8170079 2022-Aug-14 06:00 40.49192135316 0.0011354 6.5209058 27.8311046 2022-Aug-14 09:00 40.49192143648 0.0011730 6.5209033 27.8452170 2022-Aug-14 12:00 40.49192152251 0.0012106 6.5209007 27.8593447 2022-Aug-14 15:00 40.49192161126 0.0012482 6.5208982 27.8734876 2022-Aug-14 18:00 40.49192170272 0.0012858 6.5208956 27.8876453 2022-Aug-14 21:00 40.49192179690 0.0013234 6.5208931 27.9018174 2022-Aug-15 00:00 40.49192189379 0.0013611 6.5208906 27.9160038 2022-Aug-15 03:00 40.49192199340 0.0013987 6.5208880 27.9302041 2022-Aug-15 06:00 40.49192209572 0.0014363 6.5208855 27.9444180 2022-Aug-15 09:00 40.49192220076 0.0014739 6.5208830 27.9586452 2022-Aug-15 12:00 40.49192230851 0.0015115 6.5208804 27.9728853 2022-Aug-15 15:00 40.49192241898 0.0015491 6.5208779 27.9871381 2022-Aug-15 18:00 40.49192253216 0.0015867 6.5208754 28.0014032 2022-Aug-15 21:00 40.49192264806 0.0016243 6.5208728 28.0156803 2022-Aug-16 00:00 40.49192276667 0.0016619 6.5208703 28.0299692 2022-Aug-16 03:00 40.49192288800 0.0016995 6.5208678 28.0442694 2022-Aug-16 06:00 40.49192301204 0.0017372 6.5208652 28.0585807 2022-Aug-16 09:00 40.49192313880 0.0017748 6.5208627 28.0729027 2022-Aug-16 12:00 40.49192326827 0.0018124 6.5208602 28.0872352 2022-Aug-16 15:00 40.49192340046 0.0018500 6.5208576 28.1015778 2022-Aug-16 18:00 40.49192353536 0.0018876 6.5208551 28.1159303 2022-Aug-16 21:00 40.49192367298 0.0019252 6.5208526 28.1302923 2022-Aug-17 00:00 40.49192381331 0.0019628 6.5208500 28.1446635 2022-Aug-17 03:00 40.49192395636 0.0020004 6.5208475 28.1590437 2022-Aug-17 06:00 40.49192410212 0.0020381 6.5208450 28.1734325 2022-Aug-17 09:00 40.49192425060 0.0020757 6.5208425 28.1878296 2022-Aug-17 12:00 40.49192440180 0.0021133 6.5208399 28.2022348 2022-Aug-17 15:00 40.49192455571 0.0021509 6.5208374 28.2166478 2022-Aug-17 18:00 40.49192471233 0.0021885 6.5208349 28.2310683 2022-Aug-17 21:00 40.49192487167 0.0022261 6.5208323 28.2454961 2022-Aug-18 00:00 40.49192503372 0.0022637 6.5208298 28.2599307 2022-Aug-18 03:00 40.49192519849 0.0023014 6.5208273 28.2743721 2022-Aug-18 06:00 40.49192536598 0.0023390 6.5208248 28.2888199 2022-Aug-18 09:00 40.49192553618 0.0023766 6.5208222 28.3032739 2022-Aug-18 12:00 40.49192570910 0.0024142 6.5208197 28.3177338 2022-Aug-18 15:00 40.49192588473 0.0024518 6.5208172 28.3321994 2022-Aug-18 18:00 40.49192606308 0.0024894 6.5208147 28.3466704 2022-Aug-18 21:00 40.49192624414 0.0025271 6.5208121 28.3611465 2022-Aug-19 00:00 40.49192642792 0.0025647 6.5208096 28.3756276 2022-Aug-19 03:00 40.49192661441 0.0026023 6.5208071 28.3901134 2022-Aug-19 06:00 40.49192680362 0.0026399 6.5208046 28.4046036 2022-Aug-19 09:00 40.49192699554 0.0026775 6.5208021 28.4190981 2022-Aug-19 12:00 40.49192719018 0.0027151 6.5207995 28.4335965 2022-Aug-19 15:00 40.49192738754 0.0027528 6.5207970 28.4480988 2022-Aug-19 18:00 40.49192758761 0.0027904 6.5207945 28.4626045 2022-Aug-19 21:00 40.49192779039 0.0028280 6.5207920 28.4771137 2022-Aug-20 00:00 40.49192799589 0.0028656 6.5207894 28.4916259 2022-Aug-20 03:00 40.49192820411 0.0029032 6.5207869 28.5061411 2022-Aug-20 06:00 40.49192841504 0.0029409 6.5207844 28.5206589 2022-Aug-20 09:00 40.49192862869 0.0029785 6.5207819 28.5351792 2022-Aug-20 12:00 40.49192884506 0.0030161 6.5207794 28.5497018 2022-Aug-20 15:00 40.49192906413 0.0030537 6.5207769 28.5642265 2022-Aug-20 18:00 40.49192928593 0.0030913 6.5207743 28.5787530 2022-Aug-20 21:00 40.49192951044 0.0031289 6.5207718 28.5932812 2022-Aug-21 00:00 40.49192973767 0.0031666 6.5207693 28.6078109 2022-Aug-21 03:00 40.49192996761 0.0032042 6.5207668 28.6223418 2022-Aug-21 06:00 40.49193020027 0.0032418 6.5207643 28.6368738 2022-Aug-21 09:00 40.49193043564 0.0032794 6.5207617 28.6514066 2022-Aug-21 12:00 40.49193067373 0.0033170 6.5207592 28.6659402 2022-Aug-21 15:00 40.49193091453 0.0033547 6.5207567 28.6804742 2022-Aug-21 18:00 40.49193115805 0.0033923 6.5207542 28.6950085 2022-Aug-21 21:00 40.49193140429 0.0034299 6.5207517 28.7095429 2022-Aug-22 00:00 40.49193165324 0.0034675 6.5207492 28.7240772 2022-Aug-22 03:00 40.49193190491 0.0035052 6.5207467 28.7386112 2022-Aug-22 06:00 40.49193215929 0.0035428 6.5207441 28.7531448 2022-Aug-22 09:00 40.49193241639 0.0035804 6.5207416 28.7676777 2022-Aug-22 12:00 40.49193267620 0.0036180 6.5207391 28.7822097 2022-Aug-22 15:00 40.49193293874 0.0036556 6.5207366 28.7967407 2022-Aug-22 18:00 40.49193320398 0.0036933 6.5207341 28.8112705 2022-Aug-22 21:00 40.49193347194 0.0037309 6.5207316 28.8257988 2022-Aug-23 00:00 40.49193374262 0.0037685 6.5207291 28.8403256 2022-Aug-23 03:00 40.49193401602 0.0038061 6.5207266 28.8548505 2022-Aug-23 06:00 40.49193429213 0.0038438 6.5207240 28.8693735 2022-Aug-23 09:00 40.49193457095 0.0038814 6.5207215 28.8838943 2022-Aug-23 12:00 40.49193485249 0.0039190 6.5207190 28.8984127 2022-Aug-23 15:00 40.49193513675 0.0039566 6.5207165 28.9129286 2022-Aug-23 18:00 40.49193542372 0.0039942 6.5207140 28.9274418 2022-Aug-23 21:00 40.49193571341 0.0040319 6.5207115 28.9419521 2022-Aug-24 00:00 40.49193600582 0.0040695 6.5207090 28.9564592 2022-Aug-24 03:00 40.49193630094 0.0041071 6.5207065 28.9709631 2022-Aug-24 06:00 40.49193659877 0.0041447 6.5207040 28.9854635 2022-Aug-24 09:00 40.49193689933 0.0041824 6.5207015 28.9999603 2022-Aug-24 12:00 40.49193720259 0.0042200 6.5206990 29.0144532 2022-Aug-24 15:00 40.49193750858 0.0042576 6.5206964 29.0289421 2022-Aug-24 18:00 40.49193781728 0.0042952 6.5206939 29.0434268 2022-Aug-24 21:00 40.49193812870 0.0043329 6.5206914 29.0579071 2022-Aug-25 00:00 40.49193844283 0.0043705 6.5206889 29.0723829 2022-Aug-25 03:00 40.49193875968 0.0044081 6.5206864 29.0868539 2022-Aug-25 06:00 40.49193907924 0.0044457 6.5206839 29.1013199 2022-Aug-25 09:00 40.49193940152 0.0044834 6.5206814 29.1157809 2022-Aug-25 12:00 40.49193972652 0.0045210 6.5206789 29.1302365 2022-Aug-25 15:00 40.49194005423 0.0045586 6.5206764 29.1446867 2022-Aug-25 18:00 40.49194038466 0.0045962 6.5206739 29.1591313 2022-Aug-25 21:00 40.49194071780 0.0046339 6.5206714 29.1735700 2022-Aug-26 00:00 40.49194105366 0.0046715 6.5206689 29.1880027 2022-Aug-26 03:00 40.49194139224 0.0047091 6.5206664 29.2024293 2022-Aug-26 06:00 40.49194173353 0.0047467 6.5206639 29.2168495 2022-Aug-26 09:00 40.49194207754 0.0047844 6.5206614 29.2312632 2022-Aug-26 12:00 40.49194242427 0.0048220 6.5206589 29.2456702 2022-Aug-26 15:00 40.49194277371 0.0048596 6.5206564 29.2600704 2022-Aug-26 18:00 40.49194312586 0.0048972 6.5206539 29.2744636 2022-Aug-26 21:00 40.49194348074 0.0049349 6.5206514 29.2888497 2022-Aug-27 00:00 40.49194383833 0.0049725 6.5206489 29.3032284 2022-Aug-27 03:00 40.49194419863 0.0050101 6.5206464 29.3175996 2022-Aug-27 06:00 40.49194456165 0.0050477 6.5206439 29.3319632 2022-Aug-27 09:00 40.49194492739 0.0050854 6.5206414 29.3463190 2022-Aug-27 12:00 40.49194529584 0.0051230 6.5206389 29.3606669 2022-Aug-27 15:00 40.49194566701 0.0051606 6.5206364 29.3750068 2022-Aug-27 18:00 40.49194604090 0.0051982 6.5206339 29.3893384 2022-Aug-27 21:00 40.49194641750 0.0052359 6.5206314 29.4036617 2022-Aug-28 00:00 40.49194679682 0.0052735 6.5206289 29.4179765 2022-Aug-28 03:00 40.49194717885 0.0053111 6.5206264 29.4322827 2022-Aug-28 06:00 40.49194756360 0.0053488 6.5206239 29.4465802 2022-Aug-28 09:00 40.49194795107 0.0053864 6.5206214 29.4608688 2022-Aug-28 12:00 40.49194834125 0.0054240 6.5206189 29.4751484 2022-Aug-28 15:00 40.49194873415 0.0054616 6.5206164 29.4894190 2022-Aug-28 18:00 40.49194912977 0.0054993 6.5206139 29.5036803 2022-Aug-28 21:00 40.49194952810 0.0055369 6.5206114 29.5179324 2022-Aug-29 00:00 40.49194992914 0.0055745 6.5206089 29.5321751 2022-Aug-29 03:00 40.49195033291 0.0056121 6.5206064 29.5464083 2022-Aug-29 06:00 40.49195073939 0.0056498 6.5206039 29.5606319 2022-Aug-29 09:00 40.49195114858 0.0056874 6.5206014 29.5748459 2022-Aug-29 12:00 40.49195156049 0.0057250 6.5205989 29.5890502 2022-Aug-29 15:00 40.49195197512 0.0057627 6.5205964 29.6032446 2022-Aug-29 18:00 40.49195239247 0.0058003 6.5205939 29.6174292 2022-Aug-29 21:00 40.49195281253 0.0058379 6.5205914 29.6316038 2022-Aug-30 00:00 40.49195323531 0.0058755 6.5205889 29.6457684 2022-Aug-30 03:00 40.49195366080 0.0059132 6.5205865 29.6599230 2022-Aug-30 06:00 40.49195408901 0.0059508 6.5205840 29.6740675 2022-Aug-30 09:00 40.49195451993 0.0059884 6.5205815 29.6882019 2022-Aug-30 12:00 40.49195495358 0.0060261 6.5205790 29.7023261 2022-Aug-30 15:00 40.49195538993 0.0060637 6.5205765 29.7164401 2022-Aug-30 18:00 40.49195582901 0.0061013 6.5205740 29.7305440 2022-Aug-30 21:00 40.49195627080 0.0061389 6.5205715 29.7446376 2022-Aug-31 00:00 40.49195671531 0.0061766 6.5205690 29.7587210 $$EOE ******************************************************************************* Column meaning: TIME Times PRIOR to 1962 are UT1, a mean-solar time closely related to the prior but now-deprecated GMT. Times AFTER 1962 are in UTC, the current civil or "wall-clock" time-scale. UTC is kept within 0.9 seconds of UT1 using integer leap-seconds for 1972 and later years. Conversion from the internal Barycentric Dynamical Time (TDB) of solar system dynamics to the non-uniform civil UT time-scale requested for output has not been determined for UTC times after the next July or January 1st. Therefore, the last known leap-second is used as a constant over future intervals. Time tags refer to the UT time-scale conversion from TDB on Earth regardless of observer location within the solar system, although clock rates may differ due to the local gravity field and no analog to "UT" may be defined for that location. Any 'b' symbol in the 1st-column denotes a B.C. date. First-column blank (" ") denotes an A.D. date. CALENDAR SYSTEM Mixed calendar mode was active such that calendar dates after AD 1582-Oct-15 (if any) are in the modern Gregorian system. Dates prior to 1582-Oct-5 (if any) are in the Julian calendar system, which is automatically extended for dates prior to its adoption on 45-Jan-1 BC. The Julian calendar is useful for matching historical dates. The Gregorian calendar more accurately corresponds to the Earth's orbital motion and seasons. A "Gregorian-only" calendar mode is available if such physical events are the primary interest. NOTE: "n.a." in output means quantity "not available" at the print-time. 'r rdot' = The Sun's apparent range ("r", light-time aberrated) and range-rate ("rdot") relative to the target center, as seen by the observer. A positive "rdot" means the target center was moving away from the Sun, negative means moving toward the Sun. Units: AU and KM/S 'VmagSn VmagOb' = Magnitude of target centers' velocity with respect to the Sun ("VmagSn") and the observer ("VmagOb") at the time light left the target center to be observed (print time minus down-leg light-time). These are absolute values of the velocity vectors (total speeds) and do NOT indicate direction of motion. Units: KM/S Computations by ... Solar System Dynamics Group, Horizons On-Line Ephemeris System 4800 Oak Grove Drive, Jet Propulsion Laboratory Pasadena, CA 91109 USA General site: https://ssd.jpl.nasa.gov/ Mailing list: https://ssd.jpl.nasa.gov/email_list.html System news : https://ssd.jpl.nasa.gov/horizons/news.html User Guide : https://ssd.jpl.nasa.gov/horizons/manual.html Connect : browser https://ssd.jpl.nasa.gov/horizons/app.html#/x API https://ssd-api.jpl.nasa.gov/doc/horizons.html command-line telnet ssd.jpl.nasa.gov 6775 e-mail/batch https://ssd.jpl.nasa.gov/ftp/ssd/horizons_batch.txt scripts https://ssd.jpl.nasa.gov/ftp/ssd/SCRIPTS Author : Jon.D.Giorgini@jpl.nasa.gov ******************************************************************************* !$$SOF COMMAND = '2015 KG163' QUANTITIES = '19,22' START_TIME = '2022-08-01' STEP_SIZE = '3 hours' STOP_TIME = '2022-08-31'